THORAD DELTA 1 DEB, 8167

Orbit data source: Space-Track

THORAD DELTA 1 DEB, 8167 is space debris in SSO originally from a launch on Fri, 15 Nov 1974 UTC launched from the Air Force Western Test Range (AFWTR). Debris objects in space refer to the collection of defunct objects orbiting the Earth. Examples of debris include non-operational satellites, rocket bodies, and fragments generated from explosions, collisions, or faulty payload assembly.

Loading next visibility...
Identifier
8167, 1974-089AH
Orbit
SSO
Country
Flag of USUS
Related business
Manufacturer
Unknown
Mission
Spacecraft
Bus & Motor
Unknown
Mass
Unknown
Launch date (UTC)
1974-11-15 (51 years ago)
Launch vehicle
Unknown
Launch site
Air Force Western Test Range (AFWTR)
Object type
Payload
Rocket body
Debris
Shape & HBR
Unknown shape, 0.1 m
Radar Cross Section
Small (<0.1 m²)

Expand to show TLE details & history
Last TLE update: 15 hours ago

TLE from 15 hours ago
0 THORAD DELTA 1 DEB
1 08167U 74089AH  25293.83490765  .00005524  00000-0  10994-1 0  9993
2 08167 101.3552 123.4807 0116415  95.9369  21.3945 13.32866087395471
Epoch: 2025-10-20T20:02Z
TLE epoch observation values (Epoch: 2025-10-20T20:02:16.020Z)
Latitude
60.21568°
Longitude
-6.18726°
Altitude
1,064.746 km
Speed
7.365 km/s
True Right ascension
21h 35m 38s
True Declination
60° 04' 24"
Sunlit
Object was in daylight at epoch
Visualization orbit readout
Latitude
Unknown
Longitude
Unknown
Altitude
Unknown
Speed
Unknown
Apparent Right ascension
Unknown
Apparent Declination
Unknown
Sunlit
N/A
Visualization observer readout
Local Sidereal Time
06:30:27
Azimuth
Unknown
Elevation
Unknown
Doppler factor
Unknown
Orbital elements
Apogee altitude
1,220.832 km
Perigee altitude
1,045.942 km
Semi-major axis
7,511.524 km
Eccentricity
0.01164
Inclination
101.3552°
RAAN
123.4807°
Arg. of periapsis
95.9369°
True anomaly
21.88781°
Mean anomaly
21.3945°
Eccentric anomaly
21.64048°
Mean motion
3.33389 °/min
Orbital period
107.98 mins
BSTAR
0.010994
Loading maneuver chart data...
Computing Atmospheric mass density...

Documentation

Showing up to 5 results
|